H1 CPF 1 NER 2013 3 26 9 5851 glonass129 H2 1106402 9129 37868 2013 3 26 0 0 0 2013 3 29 23 45 0 900 1 1 0 0 0 H9 10 0 56377 0.00000 0 -5096252.062 -19295605.243 -15852794.754 10 0 56377 900.00000 0 -3858768.787 -17600842.191 -18022716.032 10 0 56377 1800.00000 0 -2334220.707 -15820114.232 -19841648.539 10 0 56377 2700.00000 0 -538657.227 -14017121.675 -21274116.789 10 0 56377 3600.00000 0 1499538.257 -12253005.874 -22292184.251 10 0 56377 4500.00000 0 3740583.990 -10583854.868 -22876003.392 10 0 56377 5400.00000 0 6134722.739 -9058440.647 -23014205.768 10 0 56377 6300.00000 0 8624073.332 -7716283.356 -22704124.387 10 0 56377 7200.00000 0 11144833.785 -6586123.637 -21951844.016 10 0 56377 8100.00000 0 13629744.062 -5684866.784 -20772078.628 10 0 56377 9000.00000 0 16010705.611 -5017042.183 -19187878.573 10 0 56377 9900.00000 0 18221447.902 -4574799.653 -17230173.607 10 0 56377 10800.00000 0 20200130.462 -4338441.254 -14937161.082 10 0 56377 11700.00000 0 21891771.563 -4277464.478 -12353551.819 10 0 56377 12600.00000 0 23250402.035 -4352070.990 -9529689.031 10 0 56377 13500.00000 0 24240854.536 -4515075.371 -6520558.254 10 0 56377 14400.00000 0 24840114.085 -4714131.458 -3384708.328 10 0 56377 15300.00000 0 25038174.285 -4894180.658 -183105.364 10 0 56377 16200.00000 0 24838364.734 -5000017.415 3022057.274 10 0 56377 17100.00000 0 24257137.435 -4978862.390 6168569.244 10 0 56377 18000.00000 0 23323322.775 -4782834.087 9195409.741 10 0 56377 18900.00000 0 22076887.855 -4371214.216 12043926.770 10 0 56377 19800.00000 0 20567250.527 -3712411.270 14658966.580 10 0 56377 20700.00000 0 18851220.735 -2785539.790 16989931.851 10 0 56377 21600.00000 0 16990655.834 -1581549.113 18991749.151 10 0 56377 22500.00000 0 15049927.856 -103854.343 20625728.120 10 0 56377 23400.00000 0 13093308.012 1631556.938 21860297.046 10 0 56377 24300.00000 0 11182376.511 3596547.142 22671602.062 10 0 56377 25200.00000 0 9373564.322 5751763.484 23043959.602 10 0 56377 26100.00000 0 7715927.718 8048047.375 22970154.381 10 0 56377 27000.00000 0 6249246.675 10428261.292 22451577.802 10 0 56377 27900.00000 0 5002524.763 12829459.064 21498204.289 10 0 56377 28800.00000 0 3992951.832 15185311.231 20128405.746 10 0 56377 29700.00000 0 3225371.802 17428686.674 18368606.992 10 0 56377 30600.00000 0 2692277.212 19494284.928 16252787.714 10 0 56377 31500.00000 0 2374330.668 21321210.979 13821839.252 10 0 56377 32400.00000 0 2241391.459 22855386.289 11122787.143 10 0 56377 33300.00000 0 2254004.623 24051695.915 8207893.032 10 0 56377 34200.00000 0 2365290.308 24875781.876 5133652.114 10 0 56377 35100.00000 0 2523154.153 25305407.256 1959704.579 10 0 56377 36000.00000 0 2672725.578 25331332.917 -1252318.466 10 0 56377 36900.00000 0 2758920.775 24957668.908 -4439992.254 10 0 56377 37800.00000 0 2729021.382 24201684.582 -7541315.381 10 0 56377 38700.00000 0 2535158.730 23093084.226 -10495922.356 10 0 56377 39600.00000 0 2136597.096 21672777.705 -13246267.204 10 0 56377 40500.00000 0 1501717.615 19991197.126 -15738754.128 10 0 56377 41400.00000 0 609616.975 18106229.919 -17924792.213 10 0 56377 42300.00000 0 -548748.669 16080855.199 -19761752.556 10 0 56377 43200.00000 0 -1969924.918 13980582.901 -21213808.372 10 0 56377 44100.00000 0 -3637854.295 11870803.573 -22252641.008 10 0 56377 45000.00000 0 -5524311.406 9814160.538 -22857997.572 10 0 56377 45900.00000 0 -7589861.158 7868054.972 -23018089.030 10 0 56377 46800.00000 0 -9785300.849 6082388.708 -22729820.887 10 0 56377 47700.00000 0 -12053526.241 4497639.338 -21998851.944 10 0 56377 48600.00000 0 -14331743.783 3143347.903 -20839480.160 10 0 56377 49500.00000 0 -16553936.424 2037081.746 -19274358.057 10 0 56377 50400.00000 0 -18653479.565 1183914.954 -17334043.594 10 0 56377 51300.00000 0 -20565797.446 576446.611 -15056395.704 10 0 56377 52200.00000 0 -22230948.517 195354.293 -12485826.807 10 0 56377 53100.00000 0 -23596031.305 10457.510 -9672427.563 10 0 56377 54000.00000 0 -24617310.113 -17755.862 -6670981.680 10 0 56377 54900.00000 0 -25261971.731 63793.394 -3539890.724 10 0 56377 55800.00000 0 -25509440.161 203012.247 -340030.804 10 0 56377 56700.00000 0 -25352195.131 345089.130 2866435.909 10 0 56377 57600.00000 0 -24796061.269 435059.948 6017271.056 10 0 56377 58500.00000 0 -23859957.130 420377.052 9051367.389 10 0 56377 59400.00000 0 -22575115.971 253372.165 11909929.934 10 0 56377 60300.00000 0 -20983812.135 -106490.852 14537608.380 10 0 56377 61200.00000 0 -19137647.334 -690668.195 16883559.207 10 0 56377 62100.00000 0 -17095469.065 -1519975.032 18902417.981 10 0 56377 63000.00000 0 -14921008.156 -2603476.438 20555164.182 10 0 56377 63900.00000 0 -12680333.610 -3937876.725 21809863.119 10 0 56377 64800.00000 0 -10439229.902 -5507432.888 22642272.035 10 0 56377 65700.00000 0 -8260604.526 -7284396.297 23036299.947 10 0 56377 66600.00000 0 -6202032.122 -9229965.043 22984313.325 10 0 56377 67500.00000 0 -4313535.522 -11295708.602 22487282.408 10 0 56377 68400.00000 0 -2635694.258 -13425407.107 21554765.504 10 0 56377 69300.00000 0 -1198157.746 -15557230.470 20204731.333 10 0 56377 70200.00000 0 -18623.763 -17626168.555 18463222.151 10 0 56377 71100.00000 0 897676.085 -19566613.062 16363863.034 10 0 56377 72000.00000 0 1557962.867 -21314984.951 13947225.493 10 0 56377 72900.00000 0 1981369.545 -22812298.998 11260056.277 10 0 56377 73800.00000 0 2197895.442 -24006558.969 8354384.757 10 0 56377 74700.00000 0 2246899.580 -24854883.257 5286525.034 10 0 56377 75600.00000 0 2175196.004 -25325271.552 2115991.062 10 0 56377 76500.00000 0 2034831.221 -25397937.511 -1095654.781 10 0 56377 77400.00000 0 1880637.674 -25066150.230 -4285997.448 10 0 56377 78300.00000 0 1767667.049 -24336547.733 -7392985.874 10 0 56377 79200.00000 0 1748612.842 -23228907.814 -10356146.364 10 0 56377 80100.00000 0 1871332.369 -21775384.540 -13117768.181 10 0 56377 81000.00000 0 2176574.627 -20019241.420 -15624037.332 10 0 56377 81900.00000 0 2696011.852 -18013133.640 -17826095.469 10 0 56377 82800.00000 0 3450659.874 -15817011.151 -19681002.204 10 0 56377 83700.00000 0 4449755.881 -13495730.437 -21152581.287 10 0 56377 84600.00000 0 5690142.789 -11116475.244 -22212133.470 10 0 56377 85500.00000 0 7156187.743 -8746094.656 -22839001.624 10 0 56378 0.00000 0 8820239.510 -6448470.286 -23020976.827 10 0 56378 900.00000 0 10643606.938 -4282022.989 -22754537.321 10 0 56378 1800.00000 0 12578017.173 -2297463.215 -22044915.781 10 0 56378 2700.00000 0 14567494.072 -535879.606 -20905993.563 10 0 56378 3600.00000 0 16550577.048 972755.974 -19360024.393 10 0 56378 4500.00000 0 18462787.619 2210604.357 -17437193.082 10 0 56378 5400.00000 0 20239239.755 3172455.316 -15175018.408 10 0 56378 6300.00000 0 21817284.222 3865684.948 -12617612.258 10 0 56378 7200.00000 0 23139075.549 4309678.024 -9814810.229 10 0 56378 8100.00000 0 24153953.752 4534741.860 -6821191.330 10 0 56378 9000.00000 0 24820540.829 4580559.736 -3695006.689 10 0 56378 9900.00000 0 25108464.235 4494251.238 -497039.033 10 0 56378 10800.00000 0 24999635.597 4328123.374 2710584.113 10 0 56378 11700.00000 0 24489031.760 4137209.064 5865599.810 10 0 56378 12600.00000 0 23584946.408 3976698.181 8906817.651 10 0 56378 13500.00000 0 22308702.834 3899370.415 11775302.731 10 0 56378 14400.00000 0 20693840.885 3953138.656 14415510.898 10 0 56378 15300.00000 0 18784813.027 4178806.452 16776354.789 10 0 56378 16200.00000 0 16635244.572 4608133.698 18812180.929 10 0 56378 17100.00000 0 14305830.785 5262291.510 20483640.193 10 0 56378 18000.00000 0 11861958.243 6150770.764 21758436.050 10 0 56378 18900.00000 0 9371148.646 7270789.875 22611937.573 10 0 56378 19800.00000 0 6900430.064 8607226.726 23027646.639 10 0 56378 20700.00000 0 4513743.356 10133078.085 22997511.298 10 0 56378 21600.00000 0 2269489.639 11810428.239 22522079.968 10 0 56378 22500.00000 0 218318.799 13591887.816 21610493.712 10 0 56378 23400.00000 0 -1598750.749 15422444.332 20280316.485 10 0 56378 24300.00000 0 -3151804.388 17241649.119 18557205.966 10 0 56378 25200.00000 0 -4423035.608 18986051.208 16474430.245 10 0 56378 26100.00000 0 -5407241.124 20591778.137 14072238.356 10 0 56378 27000.00000 0 -6111786.540 21997157.135 11397095.389 10 0 56378 27900.00000 0 -6556044.097 23145267.869 8500795.467 10 0 56378 28800.00000 0 -6770325.868 23986320.057 5439468.545 10 0 56378 29700.00000 0 -6794357.045 24479755.951 2272499.297 10 0 56378 30600.00000 0 -6675353.407 24595988.611 -938621.639 10 0 56378 31500.00000 0 -6465783.996 24317701.642 -4131491.827 10 0 56378 32400.00000 0 -6220913.773 23640654.210 -7244013.285 10 0 56378 33300.00000 0 -5996230.712 22573955.784 -10215606.633 10 0 56378 34200.00000 0 -5844867.077 21139797.378 -12988398.627 10 0 56378 35100.00000 0 -5815125.228 19372649.140 -15508359.035 10 0 56378 36000.00000 0 -5948214.150 17317956.725 -17726363.707 10 0 56378 36900.00000 0 -6276294.024 15030390.381 -19599162.074 10 0 56378 37800.00000 0 -6820913.213 12571719.647 -21090229.413 10 0 56378 38700.00000 0 -7591905.297 10008402.478 -22170486.563 10 0 56378 39600.00000 0 -8586794.177 7408989.833 -22818872.533 10 0 56378 40500.00000 0 -9790733.600 4841454.429 -23022758.532 10 0 56378 41400.00000 0 -11176984.651 2370555.446 -22778195.244 10 0 56378 42300.00000 0 -12707911.754 55349.485 -22089988.472 10 0 56378 43200.00000 0 -14336455.690 -2053048.458 -20971601.856 10 0 56378 44100.00000 0 -16008021.787 -3913360.887 -19444888.758 10 0 56378 45000.00000 0 -17662703.691 -5495622.059 -17539658.890 10 0 56378 45900.00000 0 -19237748.930 -6782170.171 -15293088.566 10 0 56378 46800.00000 0 -20670162.161 -7768117.507 -12748986.581 10 0 56378 47700.00000 0 -21899336.144 -8461280.746 -9956930.718 10 0 56378 48600.00000 0 -22869599.424 -8881576.552 -6971292.444 10 0 56378 49500.00000 0 -23532573.309 -9059910.221 -3850169.568 10 0 56378 50400.00000 0 -23849238.983 -9036606.482 -654248.567 10 0 56378 51300.00000 0 -23791628.057 -8859450.798 2554380.513 10 0 56378 52200.00000 0 -23344065.976 -8581425.747 5713432.925 10 0 56378 53100.00000 0 -22503916.721 -8258239.480 8761637.790 10 0 56378 54000.00000 0 -21281798.409 -7945751.692 11639922.820 10 0 56378 54900.00000 0 -19701261.533 -7697406.250 14292552.401 10 0 56378 55800.00000 0 -17797944.092 -7561778.873 16668197.447 10 0 56378 56700.00000 0 -15618239.387 -7580342.874 18720917.244 10 0 56378 57600.00000 0 -13217532.198 -7785546.498 20411035.466 10 0 56378 58500.00000 0 -10658076.574 -8199282.008 21705894.704 10 0 56378 59400.00000 0 -8006602.777 -8831810.226 22580476.349 10 0 56378 60300.00000 0 -5331751.582 -9681185.312 23017875.158 10 0 56378 61200.00000 0 -2701440.973 -10733203.870 23009620.329 10 0 56378 62100.00000 0 -180272.658 -11961880.978 22555837.645 10 0 56378 63000.00000 0 2172915.955 -13330434.162 21665249.751 10 0 56378 63900.00000 0 4307254.480 -14792735.437 20355014.372 10 0 56378 64800.00000 0 6181707.223 -16295172.341 18650402.913 10 0 56378 65700.00000 0 7766529.498 -17778841.840 16584324.548 10 0 56378 66600.00000 0 9044252.863 -19181986.953 14196703.723 10 0 56378 67500.00000 0 10010158.768 -20442575.492 11533721.577 10 0 56378 68400.00000 0 10672221.069 -21500913.863 8646934.528 10 0 56378 69300.00000 0 11050519.690 -22302186.736 5592285.830 10 0 56378 70200.00000 0 11176149.868 -22798815.849 2429028.239 10 0 56378 71100.00000 0 11089672.620 -22952538.154 -781421.984 10 0 56378 72000.00000 0 10839171.531 -22736114.681 -3976677.628 10 0 56378 72900.00000 0 10477997.948 -22134596.652 -7094596.312 10 0 56378 73800.00000 0 10062300.178 -21146093.726 -10074495.384 10 0 56378 74700.00000 0 9648441.785 -19782010.150 -12858341.366 10 0 56378 75600.00000 0 9290419.152 -18066737.055 -15391889.899 10 0 56378 76500.00000 0 9037388.767 -16036812.211 -17625752.953 10 0 56378 77400.00000 0 8931410.159 -13739581.255 -19516371.471 10 0 56378 78300.00000 0 9005501.356 -11231415.590 -21026873.667 10 0 56378 79200.00000 0 9282090.453 -8575561.006 -22127801.550 10 0 56378 80100.00000 0 9771929.915 -5839706.823 -22797690.973 10 0 56378 81000.00000 0 10473520.555 -3093377.116 -23023493.619 10 0 56378 81900.00000 0 11373070.275 -405253.003 -22800832.537 10 0 56378 82800.00000 0 12444989.884 2159462.057 -22134086.239 10 0 56378 83700.00000 0 13652905.321 4541524.069 -21036299.859 10 0 56378 84600.00000 0 14951143.682 6689874.131 -19528925.278 10 0 56378 85500.00000 0 16286630.147 8563515.407 -17641395.671 10 0 56379 0.00000 0 17601115.477 10132964.016 -15410543.191 10 0 56379 900.00000 0 18833639.675 11381214.379 -12879871.354 10 0 56379 1800.00000 0 19923127.509 12304180.601 -10098697.787 10 0 56379 2700.00000 0 20811005.516 12910596.605 -7121183.711 10 0 56379 3600.00000 0 21443730.417 13221382.559 -4005270.666 10 0 56379 4500.00000 0 21775121.521 13268505.658 -811545.748 10 0 56379 5400.00000 0 21768399.134 13093385.997 2397941.706 10 0 56379 6300.00000 0 21397843.236 12744916.692 5560888.345 10 0 56379 7200.00000 0 20650003.090 12277183.491 8615945.914 10 0 56379 8100.00000 0 19524407.491 11746981.393 11503907.642 10 0 56379 9000.00000 0 18033746.470 11211233.805 14168849.083 10 0 56379 9900.00000 0 16203517.403 10724423.298 16559201.755 10 0 56379 10800.00000 0 14071150.727 10336142.023 18628739.688 10 0 56379 11700.00000 0 11684651.793 10088864.278 20337460.996 10 0 56379 12600.00000 0 9100815.245 10016034.091 21652348.655 10 0 56379 13500.00000 0 6383085.461 10140547.253 22547997.245 10 0 56379 14400.00000 0 3599150.785 10473690.730 23007094.845 10 0 56379 15300.00000 0 818369.934 11014583.436 23020751.794 10 0 56379 16200.00000 0 -1890864.510 11750141.675 22588670.724 10 0 56379 17100.00000 0 -4463718.203 12655571.094 21719154.849 10 0 56379 18000.00000 0 -6841357.096 13695365.333 20428954.138 10 0 56379 18900.00000 0 -8973139.931 14824770.768 18742951.701 10 0 56379 19800.00000 0 -10818471.656 15991657.487 16693695.370 10 0 56379 20700.00000 0 -12348241.664 17138719.565 14320782.219 10 0 56379 21600.00000 0 -13545787.718 18205913.822 11670106.437 10 0 56379 22500.00000 0 -14407345.626 19133035.829 8792983.616 10 0 56379 23400.00000 0 -14941965.796 19862325.582 5745167.145 10 0 56379 24300.00000 0 -15170899.953 20340993.409 2585774.749 10 0 56379 25200.00000 0 -15126483.476 20523559.368 -623854.702 10 0 56379 26100.00000 0 -14850560.056 20373906.564 -3821352.092 10 0 56379 27000.00000 0 -14392514.974 19866960.416 -6944533.345 10 0 56379 27900.00000 0 -13807000.106 18989921.274 -9932615.021 10 0 56379 28800.00000 0 -13151447.138 17742996.445 -12727405.657 10 0 56379 29700.00000 0 -12483474.802 16139598.765 -15274448.720 10 0 56379 30600.00000 0 -11858300.667 14206001.417 -17524093.953 10 0 56379 31500.00000 0 -11326268.008 11980461.844 -19432475.136 10 0 56379 32400.00000 0 -10930593.474 9511850.167 -20962374.410 10 0 56379 33300.00000 0 -10705431.894 6857838.530 -22083955.622 10 0 56379 34200.00000 0 -10674340.976 4082726.629 -22775351.819 10 0 56379 35100.00000 0 -10849211.596 1254993.908 -23023095.174 10 0 56379 36000.00000 0 -11229709.435 -1555319.443 -22822380.783 10 0 56379 36900.00000 0 -11803251.850 -4279293.348 -22177159.183 10 0 56379 37800.00000 0 -12545521.025 -6851758.740 -21100055.931 10 0 56379 38700.00000 0 -13421491.562 -9213768.897 -19612119.991 10 0 56379 39600.00000 0 -14386928.732 -11314808.334 -17742406.182 10 0 56379 40500.00000 0 -15390293.556 -13114647.711 -15527400.250 10 0 56379 41400.00000 0 -16374973.608 -14584768.244 -13010298.235 10 0 56379 42300.00000 0 -17281744.560 -15709297.297 -10240154.902 10 0 56379 43200.00000 0 -18051357.808 -16485417.764 -7270918.511 10 0 56379 44100.00000 0 -18627144.251 -16923236.073 -4160371.541 10 0 56379 45000.00000 0 -18957523.795 -17045116.531 -968998.898 10 0 56379 45900.00000 0 -18998314.395 -16884512.313 2241193.592 10 0 56379 46800.00000 0 -18714743.172 -16484344.486 5407886.757 10 0 56379 47700.00000 0 -18083075.045 -15894999.246 8469657.693 10 0 56379 48600.00000 0 -17091790.677 -15172029.323 11367167.781 10 0 56379 49500.00000 0 -15742264.626 -14373657.440 14044306.245 10 0 56379 50400.00000 0 -14048915.732 -13558187.495 16449267.489 10 0 56379 51300.00000 0 -12038823.711 -12781432.399 18535542.295 10 0 56379 52200.00000 0 -9750827.979 -12094266.236 20262804.852 10 0 56379 53100.00000 0 -7234146.085 -11540402.754 21597679.741 10 0 56379 54000.00000 0 -4546568.514 -11154492.346 22514375.499 10 0 56379 54900.00000 0 -1752303.769 -10960616.259 22995173.824 10 0 56379 55800.00000 0 1080438.246 -10971240.198 23030766.029 10 0 56379 56700.00000 0 3882026.154 -11186670.497 22620431.022 10 0 56379 57600.00000 0 6584045.365 -11595035.450 21772051.615 10 0 56379 58500.00000 0 9121887.248 -12172792.782 20501968.718 10 0 56379 59400.00000 0 11437183.709 -12885742.710 18834675.547 10 0 56379 60300.00000 0 13479987.760 -13690505.172 16802356.713 10 0 56379 61200.00000 0 15210610.582 -14536400.507 14444279.788 10 0 56379 62100.00000 0 16601039.441 -15367655.916 11806049.629 10 0 56379 63000.00000 0 17635877.739 -16125846.126 8938738.374 10 0 56379 63900.00000 0 18312767.807 -16752466.387 5897906.732 10 0 56379 64800.00000 0 18642278.549 -17191529.788 2742534.425 10 0 56379 65700.00000 0 18647262.181 -17392079.260 -466120.119 10 0 56379 66600.00000 0 18361706.631 -17310507.536 -3665708.899 10 0 56379 67500.00000 0 17829131.609 -16912585.928 -6794009.066 10 0 56379 68400.00000 0 17100595.772 -16175114.585 -9790139.132 10 0 56379 69300.00000 0 16232399.226 -15087122.625 -12595752.138 10 0 56379 70200.00000 0 15283578.751 -13650565.405 -15156181.607 10 0 56379 71100.00000 0 14313302.220 -11880487.363 -17421516.979 10 0 56379 72000.00000 0 13378273.115 -9804641.679 -19347586.491 10 0 56379 72900.00000 0 12530255.731 -7462580.976 -20896827.520 10 0 56379 73800.00000 0 11813826.487 -4904255.792 -22039026.707 10 0 56379 74700.00000 0 11264447.145 -2188178.592 -22751914.899 10 0 56379 75600.00000 0 10906941.898 620770.561 -23021604.984 10 0 56379 76500.00000 0 10754442.984 3453805.421 -22842863.969 10 0 56379 77400.00000 0 10807849.459 6240859.315 -22219213.921 10 0 56379 78300.00000 0 11055821.788 8913265.817 -21162859.981 10 0 56379 79200.00000 0 11475312.061 11406382.526 -19694447.021 10 0 56379 80100.00000 0 12032606.787 13662048.556 -17842650.024 10 0 56379 81000.00000 0 12684837.377 15630773.555 -15643606.577 10 0 56379 81900.00000 0 13381893.549 17273567.464 -13140203.033 10 0 56379 82800.00000 0 14068657.748 18563335.423 -10381228.930 10 0 56379 83700.00000 0 14687465.142 19485780.815 -7420416.864 10 0 56379 84600.00000 0 15180684.259 20039780.332 -4315387.304 10 0 56379 85500.00000 0 15493308.432 20237217.194 -1126519.830 10 0 56380 0.00000 0 15575448.010 20102281.746 2084226.399 10 0 56380 900.00000 0 15384617.477 19670270.870 5254519.739 10 0 56380 1800.00000 0 14887721.879 18985938.902 8322865.699 10 0 56380 2700.00000 0 14062657.264 18101470.899 11229796.745 10 0 56380 3600.00000 0 12899459.916 17074165.028 13919018.447 10 0 56380 4500.00000 0 11400955.112 15963922.194 16338490.486 10 0 56380 5400.00000 0 9582879.052 14830648.682 18441422.454 10 0 56380 6300.00000 0 7473468.634 13731680.541 20187166.341 10 0 56380 7200.00000 0 5112536.064 12719337.015 21541989.700 10 0 56380 8100.00000 0 2550066.169 11838704.477 22479715.993 10 0 56380 9000.00000 0 -155606.328 11125742.367 22982221.099 10 0 56380 9900.00000 0 -2939965.197 10605789.204 23039777.408 10 0 56380 10800.00000 0 -5734738.594 10292530.063 22651239.702 10 0 56380 11700.00000 0 -8470483.842 10187467.959 21824069.477 10 0 56380 12600.00000 0 -11079225.899 10279920.937 20574197.126 10 0 56380 13500.00000 0 -13497042.041 10547545.090 18925723.994 10 0 56380 14400.00000 0 -15666487.226 10957362.110 16910469.021 10 0 56380 15300.00000 0 -17538760.611 11467249.154 14567367.432 10 0 56380 16200.00000 0 -19075524.004 12027829.446 11941731.622 10 0 56380 17100.00000 0 -20250296.896 12584685.188 9084386.989 10 0 56380 18000.00000 0 -21049369.757 13080800.420 6050698.213 10 0 56380 18900.00000 0 -21472197.092 13459131.391 2899503.725 10 0 56380 19800.00000 0 -21531253.182 13665196.022 -308021.652 10 0 56380 20700.00000 0 -21251355.912 13649572.610 -3509554.033 10 0 56380 21600.00000 0 -20668486.538 13370201.234 -6642834.589 10 0 56380 22500.00000 0 -19828154.647 12794389.060 -9646886.355 10 0 56380 23400.00000 0 -18783377.041 11900433.019 -12463209.199 10 0 56380 24300.00000 0 -17592355.917 10678789.197 -15036928.739 10 0 56380 25200.00000 0 -16315954.646 9132737.414 -17317875.840 10 0 56380 26100.00000 0 -15015078.280 7278510.838 -19261574.571 10 0 56380 27000.00000 0 -13748070.034 5144883.234 -20830118.532 10 0 56380 27900.00000 0 -12568234.275 2772229.435 -21992917.773 10 0 56380 28800.00000 0 -11521591.213 211097.161 -22727301.161 10 0 56380 29700.00000 0 -10644958.407 -2479651.000 -23018962.159 10 0 56380 30600.00000 0 -9964440.242 -5235048.425 -22862239.161 10 0 56380 31500.00000 0 -9494389.022 -7986495.968 -22260224.885 10 0 56380 32400.00000 0 -9236881.120 -10664391.141 -21224702.833 10 0 56380 33300.00000 0 -9181729.641 -13200805.248 -19775912.228 10 0 56380 34200.00000 0 -9307032.162 -15532096.682 -17942146.351 10 0 56380 35100.00000 0 -9580229.314 -17601351.427 -15759192.512 10 0 56380 36000.00000 0 -9959628.206 -19360549.145 -13269625.049 10 0 56380 36900.00000 0 -10396325.006 -20772364.838 -10521965.804 10 0 56380 37800.00000 0 -10836444.039 -21811531.645 -7569729.163 10 0 56380 38700.00000 0 -11223597.481 -22465709.017 -4470371.019 10 0 56380 39600.00000 0 -11501460.504 -22735821.377 -1284163.073 10 0 56380 40500.00000 0 -11616352.149 -22635854.970 1926984.852 10 0 56380 41400.00000 0 -11519712.184 -22192123.387 5100730.878 10 0 56380 42300.00000 0 -11170369.059 -21442034.535 8175511.498 10 0 56380 43200.00000 0 -10536503.181 -20432412.686 11091732.682 10 0 56380 44100.00000 0 -9597222.908 -19217447.495 13792918.666 10 0 56380 45000.00000 0 -8343687.214 -17856357.131 16226796.587 10 0 56380 45900.00000 0 -6779728.108 -16410864.025 18346296.840 10 0 56380 46800.00000 0 -4921946.753 -14942588.959 20110450.938 10 0 56380 47700.00000 0 -2799279.113 -13510472.039 21485170.798 10 0 56380 48600.00000 0 -452048.708 -12168327.423 22443895.849 10 0 56380 49500.00000 0 2069455.074 -10962632.686 22968096.787 10 0 56380 50400.00000 0 4706815.240 -9930643.767 23047627.327 10 0 56380 51300.00000 0 7395667.400 -9098912.805 22680917.978 10 0 56380 52200.00000 0 10068133.428 -8482269.592 21875008.403 10 0 56380 53100.00000 0 12655409.530 -8083308.374 20645417.615 10 0 56380 54000.00000 0 15090403.399 -7892401.007 19015853.901 10 0 56380 54900.00000 0 17310312.767 -7888235.933 17017769.028 10 0 56380 55800.00000 0 19259039.532 -8038860.781 14689764.075 10 0 56380 56700.00000 0 20889340.072 -8303185.499 12076856.856 10 0 56380 57600.00000 0 22164622.600 -8632883.629 9229623.609 10 0 56380 58500.00000 0 23060316.516 -8974612.424 6203230.279 10 0 56380 59400.00000 0 23564756.110 -9272458.800 3056371.057 10 0 56380 60300.00000 0 23679540.922 -9470507.996 -149865.969 10 0 56380 61200.00000 0 23419356.741 -9515426.233 -3353184.237 10 0 56380 62100.00000 0 22811263.950 -9358947.355 -6491292.107 10 0 56380 63000.00000 0 21893482.375 -8960157.086 -9503120.178 10 0 56380 63900.00000 0 20713723.302 -8287476.599 -12330017.943 10 0 56380 64800.00000 0 19327138.701 -7320259.634 -14916905.630 10 0 56380 65700.00000 0 17793974.092 -6049933.450 -17213357.712 10 0 56380 66600.00000 0 16177024.334 -4480633.393 -19174595.938 10 0 56380 67500.00000 0 14538999.991 -2629302.142 -20762371.662 10 0 56380 68400.00000 0 12939915.787 -525247.602 -21945719.537 10 0 56380 69300.00000 0 11434611.711 1790823.560 -22701567.316 10 0 56380 70200.00000 0 10070511.513 4268257.459 -23015189.564 10 0 56380 71100.00000 0 8885713.105 6848329.738 -22880496.246 10 0 56380 72000.00000 0 7907491.178 9466469.462 -22300150.561 10 0 56380 72900.00000 0 7151274.612 12054737.479 -21285513.835 10 0 56380 73800.00000 0 6620140.940 14544455.795 -19856418.745 10 0 56380 74700.00000 0 6304848.155 16868877.949 -18040775.605 10 0 56380 75600.00000 0 6184401.119 18965788.837 -15874019.821 10 0 56380 76500.00000 0 6227127.179 20779925.349 -13398411.719 10 0 56380 77400.00000 0 6392213.922 22265116.775 -10662203.106 10 0 56380 78300.00000 0 6631642.434 23386055.967 -7718687.477 10 0 56380 79200.00000 0 6892432.716 24119627.909 -4625153.191 10 0 56380 80100.00000 0 7119104.879 24455741.165 -1441760.882 10 0 56380 81000.00000 0 7256250.799 24397628.840 1769632.201 10 0 56380 81900.00000 0 7251106.583 23961608.090 4946677.427 10 0 56380 82800.00000 0 7056016.519 23176310.051 8027745.497 10 0 56380 83700.00000 0 6630684.216 22081414.216 10953118.994 10 0 56380 84600.00000 0 5944115.924 20725941.830 13666143.719 10 0 56380 85500.00000 0 4976174.396 19166181.010 16114316.891 99